Location: Cudham
(51.3000°N, 0.0667°E)
Time: 00:41:51
(UTC+00:00)

MetOp-A - Pass Details

Date: 15 May 2026
Orbit: 519 x 765 km, 98.3° (Epoch: 9 June)

Event Time Altitude Azimuth Distance (km) Brightness Sun altitude
Exits shadow 23:43:03 40° 156° (SSE) 1,052 4.2 -19.6°
Maximum altitude 23:44:49 83° 73° (ENE) 716 3.8 -19.6°
Drops below altitude 10° 23:49:28 10° 347° (NNW) 2,108 7.4 -19.6°
Sets 23:51:37 0° 346° (NNW) 2,986 8.6 -19.6°
